User: anonymous   Login
Location: Unspecified
(0.0000°N, 0.0000°E)
Time: 13:45:25
(UTC+00:00)
Language:

HODOYOSHI 3 - Orbit

View from above orbital plane
View from above orbital plane
View from above satellite
View from above satellite

Ground track
Ground track

The orbit data is extracted from the following two-line orbital elements,

1 40015U 14033F   17114.77165896 +.00000384 +00000-0 +59388-4 0  9996
2 40015 097.8813 009.1160 0038622 089.5092 271.0545 14.78226725153567
Epoch (UTC): 24 April 2017 18:31:11
Eccentricity: 0.0038622
inclination: 97.8813°
perigee height: 608 km
apogee height: 662 km
right ascension of ascending node: 9.1160°
argument of perigee: 89.5092°
revolutions per day: 14.78226725
mean anomaly at epoch: 271.0545°
orbit number at epoch: 15356

The dashed part of the orbit path shows where the satellite is in the earth's shadow,  

DLR